| time (UTC) | temp F | wind direction | speed knots | gust knots | rain 1hr in | rain 24hr in | rain mn in | humidity % | barometer mb |
| 20260905073041 | 57 | 312 | 3.5 | 7.0 | 0.00 | 0.00 | 0.00 | 72 | 1015.0 |
| 20260905071547 | 57 | 310 | 4.3 | 8.7 | 0.00 | 0.00 | 0.00 | 72 | 1014.9 |
| 20260905070037 | 56 | 313 | 4.3 | 7.8 | 0.00 | 0.00 | 0.00 | 72 | 1014.8 |
| 20260905064539 | 56 | 320 | 4.3 | 8.7 | 0.00 | 0.00 | 0.00 | 70 | 1014.6 |
| 20260905063041 | 56 | 317 | 6.1 | 9.6 | 0.00 | 0.00 | 0.00 | 69 | 1014.6 |
| 20260905061554 | 56 | 315 | 5.2 | 9.6 | 0.00 | 0.00 | 0.00 | 70 | 1014.5 |
| 20260905060058 | 56 | 319 | 6.1 | 9.6 | 0.00 | 0.00 | 0.00 | 70 | 1014.5 |
| 20260905054552 | 56 | 124 | 3.5 | 7.0 | 0.00 | 0.00 | 0.00 | 67 | 1014.2 |
| 20260905053037 | 57 | 135 | 1.7 | 4.3 | 0.00 | 0.00 | 0.00 | 67 | 1014.3 |
| 20260905051539 | 57 | 135 | 2.6 | 6.1 | 0.00 | 0.00 | 0.00 | 68 | 1014.2 |
| 20260905050035 | 57 | 135 | 1.7 | 3.5 | 0.00 | 0.00 | 0.00 | 67 | 1014.2 |
| 20260905044543 | 58 | 135 | 1.7 | 4.3 | 0.00 | 0.00 | 0.00 | 66 | 1014.3 |
| 20260905043041 | 59 | 135 | 1.7 | 3.5 | 0.00 | 0.00 | 0.00 | 66 | 1014.2 |
| 20260905041539 | 60 | 135 | 1.7 | 3.5 | 0.00 | 0.00 | 0.00 | 66 | 1014.3 |
| 20260905040046 | 60 | 135 | 1.7 | 3.5 | 0.00 | 0.00 | 0.00 | 66 | 1014.2 |
| 20260905034538 | 61 | 135 | 0.9 | 3.5 | 0.00 | 0.00 | 0.00 | 65 | 1014.0 |
| 20260905033051 | 62 | 135 | 0.9 | 2.6 | 0.00 | 0.00 | 0.00 | 64 | 1014.1 |
| 20260905031545 | 62 | 135 | 0.9 | 2.6 | 0.00 | 0.00 | 0.00 | 65 | 1013.8 |
| 20260905030040 | 63 | 135 | 0.9 | 2.6 | 0.00 | 0.00 | 0.00 | 64 | 1013.7 |
| 20260905024557 | 65 | 0 | 0.0 | 2.6 | 0.00 | 0.00 | 0.00 | 62 | 1013.6 |
| 20260905023042 | 67 | 0 | 0.9 | 2.6 | 0.00 | 0.00 | 0.00 | 58 | 1013.6 |
| 20260905021539 | 70 | 0 | 0.0 | 0.0 | 0.00 | 0.00 | 0.00 | 50 | 1013.6 |
| 20260905020040 | 70 | 0 | 0.0 | 0.0 | 0.00 | 0.00 | 0.00 | 48 | 1013.7 |
| 20260905014542 | 71 | 0 | 0.0 | 0.0 | 0.00 | 0.00 | 0.00 | 50 | 1013.5 |
| 20260905013102 | 72 | 0 | 0.0 | 0.0 | 0.00 | 0.00 | 0.00 | 45 | 1013.4 |
| 20260905011539 | 73 | 0 | 0.0 | 0.0 | 0.00 | 0.00 | 0.00 | 39 | 1013.3 |
| 20260905010038 | 73 | 0 | 0.0 | 0.0 | 0.00 | 0.00 | 0.00 | 37 | 1013.2 |
| 20260905004540 | 72 | 0 | 0.0 | 2.6 | 0.00 | 0.00 | 0.00 | 39 | 1013.1 |
| 20260905003042 | 71 | 0 | 0.0 | 3.5 | 0.00 | 0.00 | 0.00 | 45 | 1013.2 |
| 20260905001555 | 71 | 135 | 1.7 | 7.8 | 0.00 | 0.00 | 0.00 | 45 | 1013.2 |
| 20260905000037 | 72 | 135 | 5.2 | 7.8 | 0.00 | 0.00 | 0.00 | 42 | 1013.2 |
| 20260904234542 | 73 | 144 | 1.7 | 6.1 | 0.00 | 0.00 | 0.00 | 40 | 1013.1 |
| 20260904233038 | 73 | 144 | 2.6 | 7.8 | 0.00 | 0.00 | 0.00 | 40 | 1013.2 |
| 20260904231538 | 73 | 146 | 3.5 | 7.8 | 0.00 | 0.00 | 0.00 | 41 | 1013.2 |
| 20260904230056 | 73 | 155 | 1.7 | 5.2 | 0.00 | 0.00 | 0.00 | 44 | 1013.2 |
| 20260904224545 | 72 | 155 | 1.7 | 5.2 | 0.00 | 0.00 | 0.00 | 45 | 1013.3 |
| 20260904223102 | 71 | 155 | 2.6 | 7.0 | 0.00 | 0.00 | 0.00 | 45 | 1013.4 |
| 20260904221538 | 71 | 156 | 2.6 | 7.8 | 0.00 | 0.00 | 0.00 | 45 | 1013.5 |
| 20260904220044 | 70 | 166 | 3.5 | 6.1 | 0.00 | 0.00 | 0.00 | 46 | 1013.6 |
| 20260904214545 | 70 | 166 | 3.5 | 6.1 | 0.00 | 0.00 | 0.00 | 45 | 1013.8 |
| 20260904213044 | 70 | 166 | 1.7 | 6.1 | 0.00 | 0.00 | 0.00 | 48 | 1013.6 |
| 20260904211539 | 70 | 166 | 3.5 | 6.1 | 0.00 | 0.00 | 0.00 | 47 | 1013.8 |
| 20260904210043 | 69 | 166 | 2.6 | 7.8 | 0.00 | 0.00 | 0.00 | 49 | 1013.7 |
| 20260904204538 | 69 | 169 | 3.5 | 7.0 | 0.00 | 0.00 | 0.00 | 51 | 1013.7 |
| 20260904203037 | 68 | 175 | 3.5 | 6.1 | 0.00 | 0.00 | 0.00 | 52 | 1013.6 |
| 20260904201542 | 68 | 0 | 0.0 | 7.0 | 0.00 | 0.00 | 0.00 | 55 | 1013.8 |
| 20260904200054 | 67 | 192 | 0.9 | 5.2 | 0.00 | 0.00 | 0.00 | 55 | 1013.7 |
| 20260904194544 | 67 | 0 | 0.9 | 5.2 | 0.00 | 0.00 | 0.00 | 55 | 1013.9 |
| 20260904193041 | 66 | 202 | 1.7 | 6.1 | 0.00 | 0.00 | 0.00 | 59 | 1013.9 |
| 20260904191545 | 66 | 163 | 0.9 | 7.0 | 0.00 | 0.00 | 0.00 | 61 | 1014.1 |
| 20260904190040 | 65 | 167 | 3.5 | 7.8 | 0.00 | 0.00 | 0.00 | 59 | 1014.2 |
| 20260904184540 | 65 | 131 | 3.5 | 7.8 | 0.00 | 0.00 | 0.00 | 60 | 1014.2 |
| 20260904183040 | 64 | 119 | 4.3 | 8.7 | 0.00 | 0.00 | 0.00 | 60 | 1014.2 |
| 20260904181536 | 64 | 130 | 2.6 | 7.0 | 0.00 | 0.00 | 0.00 | 63 | 1014.0 |
| 20260904180039 | 64 | 133 | 1.7 | 6.1 | 0.00 | 0.00 | 0.00 | 63 | 1013.9 |
| 20260904174536 | 63 | 132 | 1.7 | 7.0 | 0.00 | 0.00 | 0.00 | 65 | 1013.9 |
| 20260904173040 | 62 | 124 | 4.3 | 7.8 | 0.00 | 0.00 | 0.00 | 66 | 1013.9 |
| 20260904171605 | 61 | 159 | 3.5 | 7.0 | 0.00 | 0.00 | 0.00 | 68 | 1013.8 |
| 20260904170039 | 60 | 0 | 1.7 | 6.1 | 0.00 | 0.00 | 0.00 | 68 | 1013.7 |
| 20260904164539 | 60 | 142 | 3.5 | 7.0 | 0.00 | 0.00 | 0.00 | 73 | 1013.6 |
| 20260904163049 | 58 | 129 | 0.9 | 3.5 | 0.00 | 0.00 | 0.00 | 77 | 1013.5 |
| 20260904161542 | 56 | 129 | 0.9 | 4.3 | 0.00 | 0.00 | 0.00 | 78 | 1013.8 |
| 20260904160046 | 55 | 130 | 2.6 | 4.3 | 0.00 | 0.00 | 0.00 | 80 | 1013.7 |
| 20260904154536 | 55 | 151 | 1.7 | 5.2 | 0.00 | 0.00 | 0.00 | 81 | 1013.7 |
| 20260904153103 | 54 | 151 | 1.7 | 5.2 | 0.00 | 0.00 | 0.00 | 81 | 1013.7 |
| 20260904151540 | 54 | 151 | 2.6 | 4.3 | 0.00 | 0.00 | 0.00 | 81 | 1013.5 |
| 20260904150039 | 53 | 151 | 0.0 | 4.3 | 0.00 | 0.00 | 0.00 | 81 | 1013.3 |
| 20260904144536 | 53 | 151 | 0.9 | 4.3 | 0.00 | 0.00 | 0.00 | 82 | 1013.1 |
| 20260904143047 | 52 | 151 | 0.9 | 3.5 | 0.00 | 0.00 | 0.00 | 84 | 1012.6 |
| 20260904141540 | 50 | 151 | 0.0 | 4.3 | 0.00 | 0.00 | 0.00 | 86 | 1012.4 |
| 20260904140043 | 49 | 0 | 0.0 | 0.0 | 0.00 | 0.00 | 0.00 | 86 | 1012.2 |
| 20260904134537 | 48 | 0 | 0.0 | 4.3 | 0.00 | 0.00 | 0.00 | 85 | 1012.1 |
| 20260904133040 | 49 | 151 | 0.9 | 2.6 | 0.00 | 0.00 | 0.00 | 83 | 1012.0 |
| 20260904131543 | 50 | 151 | 0.9 | 4.3 | 0.00 | 0.00 | 0.00 | 83 | 1011.9 |
| 20260904130040 | 49 | 151 | 0.9 | 2.6 | 0.00 | 0.00 | 0.00 | 83 | 1011.9 |
| 20260904124539 | 50 | 151 | 0.0 | 1.7 | 0.00 | 0.00 | 0.00 | 83 | 1011.7 |
| 20260904123042 | 50 | 151 | 0.9 | 2.6 | 0.00 | 0.00 | 0.00 | 83 | 1011.7 |
| 20260904121536 | 50 | 151 | 0.0 | 2.6 | 0.00 | 0.00 | 0.00 | 83 | 1011.5 |
| 20260904120046 | 50 | 0 | 0.0 | 0.0 | 0.00 | 0.00 | 0.00 | 82 | 1011.5 |
| 20260904114538 | 51 | 0 | 0.9 | 4.3 | 0.00 | 0.00 | 0.00 | 83 | 1011.2 |
| 20260904113039 | 50 | 0 | 0.0 | 0.9 | 0.00 | 0.00 | 0.00 | 82 | 1011.0 |
| 20260904111536 | 50 | 0 | 0.0 | 2.6 | 0.00 | 0.00 | 0.00 | 82 | 1010.8 |
| 20260904110039 | 51 | 0 | 0.0 | 0.9 | 0.00 | 0.00 | 0.00 | 81 | 1010.7 |
| 20260904104540 | 51 | 0 | 0.9 | 2.6 | 0.00 | 0.00 | 0.00 | 80 | 1010.6 |
| 20260904103042 | 52 | 151 | 0.9 | 2.6 | 0.00 | 0.00 | 0.00 | 81 | 1010.6 |
| 20260904101540 | 52 | 0 | 0.0 | 0.0 | 0.00 | 0.00 | 0.00 | 80 | 1010.4 |
| 20260904100035 | 52 | 0 | 0.0 | 1.7 | 0.00 | 0.00 | 0.00 | 79 | 1010.1 |
| 20260904094537 | 52 | 0 | 0.0 | 1.7 | 0.00 | 0.00 | 0.00 | 79 | 1009.9 |
| 20260904093037 | 52 | 0 | 0.0 | 2.6 | 0.00 | 0.00 | 0.00 | 79 | 1009.7 |
| 20260904091539 | 52 | 151 | 0.9 | 2.6 | 0.00 | 0.00 | 0.00 | 79 | 1009.6 |
| 20260904090035 | 52 | 151 | 0.9 | 4.3 | 0.00 | 0.00 | 0.00 | 80 | 1009.6 |
| 20260904084543 | 52 | 151 | 0.9 | 2.6 | 0.00 | 0.00 | 0.00 | 79 | 1009.8 |
| 20260904083041 | 53 | 0 | 0.0 | 1.7 | 0.00 | 0.00 | 0.00 | 79 | 1009.6 |
| 20260904081539 | 53 | 0 | 0.0 | 0.9 | 0.00 | 0.00 | 0.00 | 77 | 1009.6 |
| 20260904080055 | 54 | 0 | 0.0 | 1.7 | 0.00 | 0.00 | 0.00 | 77 | 1009.6 |
| 20260904074538 | 54 | 0 | 0.0 | 2.6 | 0.00 | 0.00 | 0.00 | 77 | 1009.7 |